Location: *
(51.5000°N, 0.1100°W)
Time: 00:59:26
(UTC+00:00)

MSX - Pass Details

Date: 10 August 2024
Orbit: 895 x 904 km, 99.0° (Epoch: 09 September)

Event Time Altitude Azimuth Distance (km) Brightness Sun altitude
Rises 02:01:29 0° 16° (NNE) 3,544 8.4 -18.5°
Reaches altitude 10° 02:03:54 10° 17° (NNE) 2,599 7.4 -18.3°
Maximum altitude 02:09:43 84° 106° (ESE) 918 3.8 -17.8°
Enters shadow 02:13:04 27° 193° (SSW) 1,676 4.7 -17.5°
